Location: Tehachapi Municipal Airport
(35.1300°N, 118.4400°W)
Time: 08:39:54
(UTC-07:00)

BREEZE M DEB (TANK) - Visible Passes

Search period start: 26 May 2018 00:00
Search period end: 05 June 2018 00:00
Orbit: 291 x 11950 km, 49.5° (Epoch: 25 May)

Date Brightness Start Highest point End Pass type
(mag) Time Alt. Az. Time Alt. Az. Time Alt. Az.
27 May 4.3 22:57:44 10° WNW 23:01:07 24° W 23:01:07 24° W visible
28 May 2.3 22:04:17 10° NW 22:11:31 76° SW 22:11:49 70° S visible
29 May 3.5 21:10:21 10° NW 21:20:11 57° NNE 21:22:30 21° E visible
01 Jun 4.5 22:42:58 10° WNW 22:46:17 17° WSW 22:46:17 17° WSW visible
02 Jun 2.9 21:48:56 10° NW 21:56:01 48° SW 21:56:57 37° S visible
03 Jun 3.1 20:54:51 10° NW 21:04:58 79° NE 21:07:36 17° ESE visible
